Retour au catalogue

CZ-6A DEB

ActifPO
NORAD 61487·DEBRIS·🇨🇳 China

Lancé Aug 6, 2024 depuis Taiyuan Satellite Launch Center

Loading…

Prochains Passages (prochaines 24 heures)

TLE

FraisSource: Space-Track

Époque: Sep 14, 2026, 10:43 UTC

1 61487U 24140AAV 26257.44698320  .00001728  00000-0  69006-3 0  9997
2 61487  89.0047 264.5769 0033439 260.8311  98.9100 14.27805343104614

Suivez CZ-6A DEB en temps réel avec AllMySat

Download on the App Store